Lid_Strength_Index
6 6 7 7 7 6 7 7 9 11 11 9 9 6 6 5 5 4 5 4 4 5 5 5 5 4 4 3 4 4 4 4 5 4 3 0 -0 -0
6 6 7 7 7 7 7 7 8 9 11 9 8 7 6 6 5 5 5 4 4 5 5 5 6 6 5 4 4 5 5 5 4 5 5 2 0 0
7 8 8 8 9 8 8 8 8 9 10 9 8 8 7 7 6 6 5 5 5 4 5 5 5 6 7 7 6 6 6 6 6 5 5 5 3 0
8 9 9 8 9 8 9 9 9 9 10 11 10 9 9 7 7 7 6 6 5 5 5 5 5 6 7 8 8 8 8 8 8 7 7 6 5 4
9 9 10 10 10 10 10 10 10 9 10 10 11 10 9 8 8 8 7 7 6 5 6 6 6 6 6 7 8 8 8 9 9 9 9 9 9 8
9 10 10 10 11 11 10 10 10 10 10 10 10 10 10 9 9 9 10 8 8 8 7 7 6 6 6 7 7 8 8 8 9 9 9 10 10 10
10 9 9 9 8 8 9 10 10 10 10 10 10 10 11 11 11 10 10 9 9 8 9 9 8 7 7 7 7 7 8 8 8 9 9 9 9 10
10 10 10 8 9 8 8 8 8 9 10 10 10 10 10 10 10 11 11 12 13 8 9 9 8 9 8 8 8 8 8 9 8 9 9 10 10 10
10 10 10 9 9 9 8 8 8 8 9 9 10 10 10 9 9 10 10 10 11 10 9 10 9 10 9 9 8 8 8 9 9 9 10 10 10 11
10 10 10 10 9 9 9 9 9 9 9 10 10 10 9 8 9 9 9 9 9 9 8 12 10 11 10 10 9 8 8 8 9 10 10 10 11 11
10 10 10 9 8 8 10 10 10 10 8 7 7 8 8 8 8 9 10 10 11 10 9 10 10 11 11 10 9 9 9 8 9 9 10 10 10 11
10 9 8 9 9 9 10 10 10 9 9 9 8 8 7 8 8 8 9 11 11 11 10 10 10 10 12 11 11 10 9 9 9 10 9 10 11 10
10 10 9 9 9 9 9 10 10 9 8 8 9 9 9 9 8 8 8 9 10 10 9 9 10 10 11 11 11 12 12 12 11 11 10 10 11 10
10 9 10 10 10 9 10 9 9 9 10 10 9 10 9 9 8 8 8 8 8 9 8 9 10 10 10 10 11 12 12 13 12 12 12 12 12 11
9 8 10 11 11 11 10 10 11 11 11 11 11 10 9 8 7 8 8 8 8 7 7 8 8 10 9 9 9 10 10 12 13 13 13 13 13 12
9 10 11 11 13 13 12 12 12 11 12 11 10 9 8 8 8 8 9 9 9 9 7 7 7 8 9 9 8 8 10 10 11 13 13 14 14 13
10 11 13 14 14 14 14 14 13 13 13 12 11 11 10 9 9 8 8 8 9 9 9 8 7 7 7 8 10 9 9 11 10 11 13 13 13 13
11 13 15 15 16 15 15 15 15 15 14 13 12 10 10 10 9 8 7 7 8 9 9 8 8 8 10 10 8 10 10 10 10 11 11 12 13 12
13 14 15 16 16 16 15 15 16 16 15 15 14 13 12 10 9 9 8 6 7 7 8 9 9 9 11 12 11 9 11 11 11 11 11 12 12 12
14 15 16 16 16 16 16 17 16 16 16 16 16 15 14 11 12 11 10 9 9 9 9 8 9 9 10 11 12 11 9 11 12 13 12 12 11 10
16 16 16 16 16 16 17 18 18 17 17 18 17 17 17 14 12 12 12 12 11 10 11 11 11 10 10 11 13 13 13 9 10 12 12 13 14 13
17 17 17 17 17 17 18 18 18 17 16 17 18 18 18 17 16 15 14 14 13 12 11 11 10 9 11 11 14 14 14 13 11 11 10 11 12 14
17 17 18 18 18 18 18 19 19 18 17 17 18 18 20 19 17 16 16 15 14 13 12 12 12 12 13 12 13 14 14 14 14 13 13 10 9 10